VH314 YWVA-YSSY

Flight info

Callsign VH314
Flight time 0h 40m
Altitude 5500
Route SSY DCT
Aircraft C152/L-V/N

Departure

Time 2026-05-07 00:44
Airport Warnervale Airport (YWVA)

Arrival

Time 2026-05-07 01:24
Airport Sydney Kingsford Smith International Airport (YSSY)
Time Latitude Longitude Altitude Speed Heading
2026-05-07 00:36 -33.23983 151.43096 32 ft 0 kts 43°
2026-05-07 00:40 -33.23959 151.43112 33 ft 9 kts 31°
2026-05-07 00:41 -33.23884 151.43178 34 ft 18 kts 35°
2026-05-07 00:41 -33.23749 151.43298 34 ft 29 kts 38°
2026-05-07 00:41 -33.23620 151.43369 37 ft 6 kts 312°
2026-05-07 00:41 -33.23629 151.43336 38 ft 0 kts 213°
2026-05-07 00:43 -33.23662 151.43306 35 ft 26 kts 217°
2026-05-07 00:43 -33.23939 151.43099 104 ft 58 kts 225°
2026-05-07 00:43 -33.24170 151.42901 232 ft 63 kts 225°
2026-05-07 00:44 -33.24494 151.42573 476 ft 59 kts 221°
2026-05-07 00:44 -33.24843 151.42335 776 ft 57 kts 222°
2026-05-07 00:44 -33.25194 151.42083 970 ft 59 kts 229°
2026-05-07 00:44 -33.25569 151.41820 1232 ft 63 kts 217°
2026-05-07 00:45 -33.25985 151.41611 1454 ft 65 kts 218°
2026-05-07 00:45 -33.26379 151.41380 1725 ft 63 kts 219°
2026-05-07 00:45 -33.26772 151.41142 2043 ft 61 kts 221°
2026-05-07 00:45 -33.27143 151.40883 2265 ft 62 kts 221°
2026-05-07 00:46 -33.27555 151.40747 2561 ft 64 kts 202°
2026-05-07 00:46 -33.28049 151.40788 2737 ft 78 kts 191°
2026-05-07 00:46 -33.28582 151.40849 2974 ft 72 kts 196°
2026-05-07 00:46 -33.29065 151.40911 3212 ft 67 kts 188°
2026-05-07 00:47 -33.29535 151.40980 3301 ft 71 kts 204°
2026-05-07 00:47 -33.30052 151.40959 3432 ft 74 kts 198°
2026-05-07 00:47 -33.30584 151.41062 3590 ft 75 kts 199°
2026-05-07 00:47 -33.31078 151.41022 3769 ft 75 kts 193°
2026-05-07 00:48 -33.31630 151.41115 3843 ft 82 kts 195°
2026-05-07 00:48 -33.32218 151.41096 3919 ft 89 kts 192°
2026-05-07 00:48 -33.32822 151.41218 4065 ft 89 kts 187°
2026-05-07 00:48 -33.33450 151.41517 4110 ft 106 kts 158°
2026-05-07 00:49 -33.33928 151.42279 4110 ft 115 kts 147°
2026-05-07 00:49 -33.34566 151.42573 4140 ft 80 kts 208°
2026-05-07 00:49 -33.35069 151.42446 4310 ft 77 kts 208°
2026-05-07 00:49 -33.35682 151.42391 4298 ft 87 kts 200°
2026-05-07 00:50 -33.36241 151.42291 4424 ft 77 kts 219°
2026-05-07 00:50 -33.36722 151.42025 4488 ft 78 kts 213°
2026-05-07 00:50 -33.37287 151.41861 4521 ft 83 kts 205°
2026-05-07 00:50 -33.37895 151.41890 4541 ft 92 kts 190°
2026-05-07 00:51 -33.38535 151.42098 4518 ft 103 kts 172°
2026-05-07 00:51 -33.39187 151.42222 4530 ft 88 kts 198°
2026-05-07 00:51 -33.39773 151.42213 4608 ft 83 kts 200°
2026-05-07 00:51 -33.40351 151.42147 4615 ft 83 kts 205°
2026-05-07 00:52 -33.40961 151.42091 4572 ft 91 kts 196°
2026-05-07 00:52 -33.41556 151.42046 4629 ft 85 kts 202°
2026-05-07 00:52 -33.42196 151.42074 4617 ft 92 kts 195°
2026-05-07 00:52 -33.42817 151.42122 4676 ft 91 kts 197°
2026-05-07 00:53 -33.43458 151.42096 4710 ft 90 kts 198°
2026-05-07 00:53 -33.44067 151.42083 4728 ft 89 kts 198°
2026-05-07 00:53 -33.44712 151.42160 4808 ft 94 kts 184°
2026-05-07 00:53 -33.45350 151.42218 4804 ft 90 kts 200°
2026-05-07 00:54 -33.45954 151.42200 4869 ft 89 kts 193°
2026-05-07 00:54 -33.46598 151.42313 4858 ft 94 kts 192°
2026-05-07 00:54 -33.47228 151.42313 4880 ft 87 kts 202°
2026-05-07 00:54 -33.47816 151.42220 4953 ft 81 kts 208°
2026-05-07 00:55 -33.48400 151.42112 4886 ft 93 kts 196°
2026-05-07 00:55 -33.49037 151.42117 4847 ft 95 kts 198°
2026-05-07 00:55 -33.49696 151.42043 4748 ft 97 kts 206°
2026-05-07 00:55 -33.50292 151.41830 4891 ft 81 kts 209°
2026-05-07 00:56 -33.50869 151.41746 4867 ft 89 kts 203°
2026-05-07 00:56 -33.51508 151.41633 4697 ft 96 kts 205°
2026-05-07 00:56 -33.52119 151.41429 4604 ft 96 kts 212°
2026-05-07 00:56 -33.52743 151.41191 4446 ft 102 kts 206°
2026-05-07 00:57 -33.53432 151.40929 4156 ft 102 kts 209°
2026-05-07 00:57 -33.54126 151.40733 3958 ft 96 kts 208°
2026-05-07 00:57 -33.54733 151.40487 3853 ft 95 kts 209°
2026-05-07 00:57 -33.55412 151.40350 3681 ft 101 kts 196°
2026-05-07 00:58 -33.56120 151.40296 3528 ft 99 kts 196°
2026-05-07 00:58 -33.56744 151.40109 3395 ft 94 kts 216°
2026-05-07 00:58 -33.57318 151.39748 3268 ft 90 kts 218°
2026-05-07 00:58 -33.57895 151.39463 3157 ft 94 kts 208°
2026-05-07 00:59 -33.59198 151.39140 2910 ft 95 kts 201°
2026-05-07 00:59 -33.59835 151.38956 2795 ft 93 kts 207°
2026-05-07 00:59 -33.60474 151.38779 2690 ft 97 kts 199°
2026-05-07 01:00 -33.61146 151.38772 2635 ft 93 kts 197°
2026-05-07 01:00 -33.61784 151.38683 2537 ft 94 kts 200°
2026-05-07 01:00 -33.62471 151.38669 2413 ft 100 kts 190°
2026-05-07 01:00 -33.63152 151.38715 2342 ft 97 kts 187°
2026-05-07 01:01 -33.63821 151.38696 2212 ft 92 kts 205°
2026-05-07 01:01 -33.64376 151.38386 2109 ft 89 kts 218°
2026-05-07 01:01 -33.64931 151.38046 2050 ft 88 kts 213°
2026-05-07 01:01 -33.65527 151.37844 1998 ft 90 kts 201°
2026-05-07 01:02 -33.66146 151.37714 1924 ft 89 kts 203°
2026-05-07 01:02 -33.66768 151.37553 1814 ft 94 kts 200°
2026-05-07 01:02 -33.67415 151.37510 1809 ft 91 kts 198°
2026-05-07 01:02 -33.67882 151.37440 1731 ft 95 kts 198°
2026-05-07 01:03 -33.68543 151.37417 1722 ft 93 kts 193°
2026-05-07 01:03 -33.69134 151.37301 1732 ft 86 kts 204°
2026-05-07 01:03 -33.69789 151.37227 1618 ft 94 kts 197°
2026-05-07 01:03 -33.70403 151.37131 1636 ft 91 kts 200°
2026-05-07 01:04 -33.71047 151.37092 1664 ft 91 kts 193°
2026-05-07 01:04 -33.71685 151.37076 1624 ft 91 kts 202°
2026-05-07 01:04 -33.72297 151.36934 1615 ft 89 kts 201°
2026-05-07 01:04 -33.72936 151.36895 1622 ft 95 kts 187°
2026-05-07 01:05 -33.73580 151.36871 1674 ft 92 kts 196°
2026-05-07 01:05 -33.74222 151.36910 1713 ft 95 kts 182°
2026-05-07 01:05 -33.74876 151.37052 1652 ft 95 kts 189°
2026-05-07 01:05 -33.75524 151.37103 1649 ft 91 kts 194°
2026-05-07 01:06 -33.76154 151.37028 1595 ft 91 kts 198°
2026-05-07 01:06 -33.76798 151.37033 1580 ft 95 kts 184°
2026-05-07 01:06 -33.77479 151.37063 1428 ft 98 kts 196°
2026-05-07 01:06 -33.78117 151.37029 1535 ft 86 kts 198°
2026-05-07 01:07 -33.78735 151.36920 1428 ft 91 kts 200°
2026-05-07 01:07 -33.79365 151.36895 1431 ft 90 kts 192°
2026-05-07 01:07 -33.79973 151.36779 1376 ft 90 kts 207°
2026-05-07 01:07 -33.80597 151.36653 1371 ft 92 kts 197°
2026-05-07 01:08 -33.81249 151.36742 1414 ft 89 kts 190°
2026-05-07 01:08 -33.81847 151.36689 1359 ft 91 kts 200°
2026-05-07 01:08 -33.82521 151.36649 1269 ft 99 kts 188°
2026-05-07 01:08 -33.83150 151.36555 1283 ft 90 kts 206°
2026-05-07 01:09 -33.83726 151.36344 1349 ft 82 kts 204°
2026-05-07 01:09 -33.84263 151.36228 1448 ft 75 kts 201°
2026-05-07 01:09 -33.84805 151.36110 1398 ft 86 kts 200°
2026-05-07 01:09 -33.85388 151.35935 1339 ft 85 kts 217°
2026-05-07 01:10 -33.85869 151.35629 1430 ft 83 kts 212°
2026-05-07 01:10 -33.86436 151.35452 1418 ft 85 kts 204°
2026-05-07 01:10 -33.87021 151.35295 1396 ft 84 kts 205°
2026-05-07 01:10 -33.87574 151.35050 1322 ft 86 kts 214°
2026-05-07 01:11 -33.88132 151.34857 1415 ft 83 kts 207°
2026-05-07 01:11 -33.88667 151.34641 1514 ft 75 kts 209°
2026-05-07 01:11 -33.89221 151.34566 1464 ft 91 kts 198°
2026-05-07 01:11 -33.89806 151.34452 1359 ft 78 kts 223°
2026-05-07 01:12 -33.90339 151.34154 1137 ft 93 kts 201°
2026-05-07 01:12 -33.90612 151.33692 1105 ft 73 kts 239°
2026-05-07 01:12 -33.91217 151.33866 984 ft 103 kts 169°
2026-05-07 01:12 -33.91835 151.34279 948 ft 101 kts 161°
2026-05-07 01:13 -33.92368 151.34875 889 ft 106 kts 149°
2026-05-07 01:13 -33.92860 151.35522 965 ft 101 kts 148°
2026-05-07 01:13 -33.93076 151.36272 1123 ft 104 kts 55°
2026-05-07 01:13 -33.92532 151.36685 1275 ft 76 kts 347°
2026-05-07 01:14 -33.92052 151.36654 1323 ft 69 kts 326°
2026-05-07 01:14 -33.91527 151.36640 1361 ft 84 kts 347°
2026-05-07 01:14 -33.90931 151.36703 1499 ft 81 kts 346°
2026-05-07 01:14 -33.90335 151.36905 1500 ft 105 kts
2026-05-07 01:15 -33.89649 151.37161 1423 ft 109 kts 355°
2026-05-07 01:15 -33.88990 151.37082 1551 ft 85 kts 323°
2026-05-07 01:15 -33.88349 151.36998 1504 ft 114 kts
2026-05-07 01:15 -33.87770 151.37689 1417 ft 122 kts 70°
2026-05-07 01:16 -33.87783 151.38676 1277 ft 110 kts 133°
2026-05-07 01:16 -33.88286 151.38806 1168 ft 70 kts 238°
2026-05-07 01:16 -33.88530 151.38227 877 ft 84 kts 246°
2026-05-07 01:16 -33.88782 151.37558 818 ft 85 kts 247°
2026-05-07 01:17 -33.89072 151.36928 844 ft 87 kts 243°
2026-05-07 01:17 -33.89395 151.36303 828 ft 88 kts 246°
2026-05-07 01:17 -33.89652 151.35643 785 ft 89 kts 248°
2026-05-07 01:17 -33.89899 151.35004 848 ft 78 kts 250°
2026-05-07 01:18 -33.90061 151.34414 986 ft 71 kts 254°
2026-05-07 01:18 -33.90215 151.33855 1098 ft 73 kts 251°
2026-05-07 01:18 -33.90422 151.33301 1238 ft 72 kts 250°
2026-05-07 01:18 -33.90610 151.32736 1372 ft 72 kts 253°
2026-05-07 01:19 -33.90754 151.32189 1583 ft 65 kts 254°
2026-05-07 01:19 -33.90806 151.31676 1804 ft 62 kts 270°
2026-05-07 01:19 -33.90821 151.31158 1938 ft 65 kts 255°
2026-05-07 01:19 -33.90959 151.30608 2041 ft 72 kts 249°
2026-05-07 01:20 -33.91160 151.30022 2065 ft 81 kts 250°
2026-05-07 01:20 -33.91357 151.29378 1984 ft 84 kts 254°
2026-05-07 01:20 -33.91544 151.28719 1858 ft 82 kts 250°
2026-05-07 01:20 -33.91729 151.28078 1723 ft 83 kts 256°
2026-05-07 01:21 -33.91874 151.27408 1584 ft 84 kts 254°
2026-05-07 01:21 -33.92039 151.26730 1384 ft 85 kts 256°
2026-05-07 01:21 -33.92183 151.26035 1191 ft 88 kts 256°
2026-05-07 01:21 -33.92310 151.25315 1097 ft 87 kts 260°
2026-05-07 01:22 -33.92436 151.24603 1023 ft 85 kts 256°
2026-05-07 01:22 -33.92597 151.23933 957 ft 83 kts 255°
2026-05-07 01:22 -33.92771 151.23279 853 ft 85 kts 255°
2026-05-07 01:22 -33.92910 151.22587 704 ft 83 kts 253°
2026-05-07 01:23 -33.93053 151.21941 593 ft 81 kts 255°
2026-05-07 01:23 -33.93203 151.21311 514 ft 79 kts 254°
2026-05-07 01:23 -33.93354 151.20676 435 ft 76 kts 253°
2026-05-07 01:23 -33.93489 151.20082 323 ft 73 kts 256°
2026-05-07 01:24 -33.93627 151.19536 224 ft 64 kts 252°
2026-05-07 01:24 -33.93738 151.19022 118 ft 62 kts 252°
2026-05-07 01:24 -33.93855 151.18540 47 ft 57 kts 252°
2026-05-07 01:24 -33.93945 151.18166 24 ft 39 kts 251°
2026-05-07 01:25 -33.94011 151.17892 16 ft 25 kts 252°
2026-05-07 01:25 -33.94023 151.17831 17 ft 0 kts 296°
2026-05-07 01:25 -33.94021 151.17827 17 ft 5 kts 290°
2026-05-07 01:25 -33.93954 151.17785 16 ft 16 kts 344°
2026-05-07 01:26 -33.93850 151.17765 14 ft 14 kts 10°
2026-05-07 01:26 -33.93826 151.17834 17 ft 17 kts 78°
2026-05-07 01:26 -33.93784 151.17990 24 ft 24 kts 74°
2026-05-07 01:26 -33.93757 151.18090 25 ft 17 kts 73°
2026-05-07 01:27 -33.93719 151.18204 25 ft 9 kts 355°
2026-05-07 01:27 -33.93686 151.18190 25 ft 7 kts 346°
2026-05-07 01:27 -33.93617 151.18215 25 ft 9 kts 25°
2026-05-07 01:27 -33.93614 151.18237 25 ft 0 kts 159°
2026-05-07 01:31 -33.93659 151.18240 25 ft 8 kts 181°
2026-05-07 01:31 -33.93704 151.18289 25 ft 11 kts 99°
2026-05-07 01:32 -33.93712 151.18378 25 ft 0 kts 99°
2026-05-07 01:34 -33.93692 151.18401 25 ft 9 kts 300°
2026-05-07 01:34 -33.93712 151.18324 25 ft 11 kts 253°
2026-05-07 01:34 -33.93732 151.18243 25 ft 9 kts 250°
2026-05-07 01:35 -33.93740 151.18227 25 ft 2 kts 200°
2026-05-07 01:35 -33.93710 151.18298 25 ft 9 kts 70°
2026-05-07 01:35 -33.93677 151.18457 25 ft 30 kts 78°
2026-05-07 01:35 -33.93635 151.18646 25 ft 2 kts 61°
2026-05-07 01:36 -33.93592 151.18651 25 ft 12 kts 19°
2026-05-07 01:36 -33.93550 151.18714 25 ft 4 kts 30°
2026-05-07 01:36 -33.93546 151.18702 25 ft 0 kts 232°
2026-05-07 01:38 -33.93524 151.18667 25 ft 0 kts 174°